Regional Weather Roundup
Issued by NWS Charleston, WV

Home | Current Version | Previous Version | Graphics & Text | Print | Product List | Glossary On
Versions: 1 2 3 4 5 6 7 8 9 10 11 12 13 14 15 16 17 18 19 20 21 22 23 24 25 26 27 28 29 30 31 32 33 34 35 36 37 38 39 40 41 42 43 44 45 46 47 48 49 50
000
ASUS41 KRLX 300410
RWRRLX
West Virginia Regional Weather Roundup
National Weather Service Charleston WV
1200 AM EDT SAT JUL 30 2016

Note: "fair" indicates few or no clouds below 12,000 feet with no
significant weather and/or obstructions to visibility.

WVZ003-300500-
Northern Panhandle of West Virginia

CITY           SKY/WX    TMP DP  RH WIND       PRES   REMARKS
WHEELING         N/A     74  68  81 CALM      29.97S
$$

WVZ009-300500-
Northwest West Virginia

CITY           SKY/WX    TMP DP  RH WIND       PRES   REMARKS
PARKERSBURG      N/A     73  71  93 CALM      29.98S FOG
$$

WVZ006-300500-
Western West Virginia

CITY           SKY/WX    TMP DP  RH WIND       PRES   REMARKS
HUNTINGTON     MOCLDY    74  72  93 S7        29.96R
$$

WVZ015-300500-
West Central West Virginia

CITY           SKY/WX    TMP DP  RH WIND       PRES   REMARKS
CHARLESTON     MOCLDY    74  71  91 S5        29.97S
$$

WVZ022-031-300500-
North Central West Virginia

CITY           SKY/WX    TMP DP  RH WIND       PRES   REMARKS
CLARKSBURG       N/A     71  69  93 S3        29.98R
MORGANTOWN       N/A     72  67  84 CALM      29.99S
$$

WVZ025-035-042-045-300500-
Southern West Virginia

CITY           SKY/WX    TMP DP  RH WIND       PRES   REMARKS
BECKLEY          N/A     68  66  93 S3        30.06S
LOGAN          NOT AVBL
BLUEFIELD        N/A     66  65  96 SW5       30.10R FOG
LEWISBURG      MOCLDY    67  65  94 CALM      30.07R
$$

WVZ047-300500-
Northern Mountains of West Virginia

CITY           SKY/WX    TMP DP  RH WIND       PRES   REMARKS
ELKINS           N/A     67  64  90 CALM      30.04S FOG
$$

WVZ052-300500-
Eastern Panhandle of West Virginia

CITY           SKY/WX    TMP DP  RH WIND       PRES   REMARKS
MARTINSBURG      N/A     73  69  87 CALM      29.94S
PETERSBURG       N/A     70  69  97 CALM      29.99S
$$



USA.gov is the U.S. government's official web portal to all federal, state and local government web resources and services.